weather.gov     
National Weather Service

Terminal Aerodrome Forecast
NWS Homepage
This page is being discontinued on March 12, 2014.
The same data is available at this site. Please update your bookmarks.
Thank you, and we apologize for the inconvenience.
Please send an email to SR-SRH.Webmaster@noaa.gov with any concerns.


Current Version
Previous Version:    01  02  03  04  05  06  07  08  09  10  11  12  13  14  
[Printable]
265
FTUS41 KCAR 221159
TAFCAR
TAF
KCAR 221159Z 2212/2312 VRB03KT P6SM BKN007 OVC030
     FM221800 VRB03KT P6SM BKN012
     FM230000 VRB03KT P6SM SCT010 OVC035
     FM230600 16006KT P6SM BKN008 OVC035=


265
FTUS41 KCAR 221159
TAFCAR
TAF
KCAR 221159Z 2212/2312 VRB03KT P6SM BKN007 OVC030
     FM221800 VRB03KT P6SM BKN012
     FM230000 VRB03KT P6SM SCT010 OVC035
     FM230600 16006KT P6SM BKN008 OVC035=




U.S. Dept. of Commerce
NOAA National Weather Service
1325 East West Highway
Silver Spring, MD 20910
E-mail: w-nws.webmaster@noaa.gov
Page last modified: May 16, 2007
NATIONAL WEATHER SERVICE: for Safety, for Work, for Fun - FOR LIFE